Home > Weather > Louisville > Past weeks

Flag for USA Past Weather in Louisville, Kentucky, USA — Yesterday and Last 2 Weeks

Now
76 °F

Passing clouds.


Feels Like: 76 °F
Forecast: 76 / 91 °F
Wind: No wind

Location: Standiford Field

Current Time: Aug 28, 2016 at 8:36:28 AM

Latest Report: Aug 28, 2016 at 7:56 AM


Visibility: 7 mi

Pressure: 30.14 "Hg

Humidity: 85%

Dew Point: 71 °F

Location of LouisvilleLocation

Past Weather in Louisville — Graph

°F

Louisville Temperature Yesterday

Maximum temperature yesterday: 89 °F (at 12:56 PM)
Minimum temperature yesterday: 77 °F (at 4:56 AM)
Average temperature yesterday: 83 °F

High & Low Weather Summary for the Past Weeks

 TemperatureHumidityPressure
High92 °F (Aug 25, 2:56 PM)94% (Aug 15, 4:56 AM)30.27 "Hg (Aug 15, 4:56 AM)
Low64 °F (Aug 22, 4:56 AM)36% (Aug 22, 4:56 PM)29.72 "Hg (Aug 20, 5:56 PM)
Average79 °F72%30.05 "Hg
* Reported Aug 13 6:56 AM — Aug 28 6:56 AM, Louisville, Weather by CustomWeather, © 2016

Note: Actual official high and low records may vary slightly from our data, if they occured in-between our weather recording intervals... More about our weather records

Advertising

Louisville Weather History for the Previous 24 Hours

Scroll right to see more
 ConditionsComfort  
Time TempWeatherWind HumidityBarometerVisibility
6:56 AM
Sun, Aug 28
75 °FPassing clouds.6 mph88%30.13 "Hg8 mi
5:56 AM77 °FPassing clouds.No wind85%30.11 "Hg9 mi
4:56 AM77 °FPassing clouds.3 mph85%30.11 "Hg9 mi
3:56 AM76 °FPassing clouds.No wind88%30.10 "Hg9 mi
2:56 AM79 °FPassing clouds.No wind79%30.09 "Hg10 mi
1:56 AM80 °FPassing clouds.No wind74%30.09 "Hg10 mi
12:56 AM80 °FPassing clouds.3 mph74%30.11 "Hg10 mi
11:56 PM
Sat, Aug 27
81 °FPassing clouds.No wind72%30.11 "Hg10 mi
10:56 PM81 °FPassing clouds.5 mph74%30.09 "Hg10 mi
9:56 PM82 °FOvercast.7 mph74%30.07 "Hg10 mi
8:56 PM84 °FCloudy.9 mph74%30.07 "Hg9 mi
7:56 PM86 °FPartly sunny.9 mph65%30.06 "Hg9 mi
6:56 PM88 °FPartly sunny.3 mph57%30.04 "Hg9 mi
5:56 PM89 °FPartly sunny.No wind55%30.04 "Hg10 mi
4:56 PM88 °FScattered clouds.8 mph57%30.03 "Hg10 mi
3:56 PM89 °FPassing clouds.7 mph55%30.05 "Hg10 mi
2:56 PM87 °FPassing clouds.10 mph59%30.07 "Hg10 mi
1:56 PM86 °FBroken clouds.13 mph63%30.08 "Hg10 mi
12:56 PM89 °FMostly cloudy.9 mph59%30.07 "Hg8 mi
11:56 AM88 °FBroken clouds.5 mph59%30.08 "Hg8 mi
10:56 AM86 °FScattered clouds.3 mph63%30.07 "Hg8 mi
9:56 AM85 °FBroken clouds.5 mph68%30.07 "Hg7 mi
8:56 AM80 °FBroken clouds.6 mph79%30.08 "Hg6 mi
Weather by CustomWeather, © 2016

See weather overviewHow to use our weather pages